FW8702 Weather Reports


Display with metric or nautical units.
time (UTC)temp
F
wind
direction
speed
MPH
gust
MPH
rain 1hr
in
rain 24hr
in
rain mn
in
humidity
%
barometer
mb
20260903130039 87 219 0.0 5.0 0.00 0.00 0.00 42 1019.9
20260903124534 86 227 2.0 7.0 0.00 0.00 0.00 42 1020.2
20260903123100 86 250 3.0 8.0 0.00 0.00 0.00 42 1020.4
20260903121511 86 237 1.0 6.0 0.00 0.00 0.00 42 1020.4
20260903120010 85 219 1.0 4.0 0.00 0.00 0.00 41 1020.5
20260903114504 86 306 1.0 4.0 0.00 0.00 0.00 40 1020.7
20260903113041 84 197 1.0 4.0 0.00 0.00 0.00 43 1021.0
20260903111508 83 234 2.0 7.0 0.00 0.00 0.00 42 1021.1
20260903110055 84 209 1.0 4.0 0.00 0.00 0.00 44 1021.0
20260903104611 82 256 1.0 6.0 0.00 0.00 0.00 45 1021.1
20260903103021 83 224 0.0 5.0 0.00 0.00 0.00 50 1021.4
20260903101604 81 213 1.0 3.0 0.00 0.00 0.00 48 1021.6
20260903100021 80 221 1.0 4.0 0.00 0.00 0.00 50 1021.8
20260903094535 80 268 1.0 7.0 0.00 0.00 0.00 50 1021.8
20260903093008 80 289 2.0 6.0 0.00 0.00 0.00 52 1021.6
20260903091508 78 213 1.0 5.0 0.00 0.00 0.00 52 1021.6
20260903090047 78 265 2.0 6.0 0.00 0.00 0.00 52 1021.6
20260903084601 78 298 3.0 6.0 0.00 0.00 0.00 54 1021.7
20260903083105 78 261 2.0 3.0 0.00 0.00 0.00 52 1021.6
20260903081520 77 343 0.0 3.0 0.00 0.00 0.00 56 1021.4
20260903080013 76 325 0.0 4.0 0.00 0.00 0.00 54 1021.5
20260903074508 75 280 0.0 3.0 0.00 0.00 0.00 58 1021.5
20260903073018 74 8 1.0 4.0 0.00 0.00 0.00 60 1021.4
20260903071520 73 285 0.0 3.0 0.00 0.00 0.00 64 1021.4
20260903070014 72 270 1.0 3.0 0.00 0.00 0.00 65 1021.4
20260903064505 71 328 0.0 5.0 0.00 0.00 0.00 70 1021.5
20260903063101 71 344 0.0 2.0 0.00 0.00 0.00 69 1021.6
20260903061535 70 338 1.0 4.0 0.00 0.00 0.00 70 1021.5
20260903060045 68 8 0.0 4.0 0.00 0.00 0.00 73 1021.6
20260903054509 67 321 0.0 3.0 0.00 0.00 0.00 76 1021.3
20260903053038 66 279 0.0 2.0 0.00 0.00 0.00 76 1021.0
20260903051547 66 279 0.0 2.0 0.00 0.00 0.00 74 1020.9
20260903050014 68 276 0.0 3.0 0.00 0.00 0.00 71 1020.8
20260903044604 67 327 2.0 3.0 0.00 0.00 0.00 73 1020.7
20260903043057 65 324 1.0 3.0 0.00 0.00 0.00 77 1020.5
20260903041544 65 266 0.0 3.0 0.00 0.00 0.00 78 1020.5
20260903040013 66 256 0.0 3.0 0.00 0.00 0.00 75 1020.3
20260903033032 67 298 0.0 3.0 0.00 0.00 0.00 76 1020.1
20260903031602 68 275 1.0 6.0 0.00 0.00 0.00 73 1020.1
20260903030004 67 314 0.0 4.0 0.00 0.00 0.00 77 1020.1
20260903024534 67 344 0.0 4.0 0.00 0.00 0.00 77 1020.1
20260903023005 69 273 2.0 4.0 0.00 0.00 0.00 74 1020.2
20260903021539 68 3 2.0 10.0 0.00 0.00 0.00 78 1020.3
20260903020018 65 283 2.0 6.0 0.00 0.00 0.00 81 1020.3
20260903014554 67 356 0.0 3.0 0.00 0.00 0.00 80 1020.3
20260903013037 68 13 0.0 2.0 0.00 0.00 0.00 78 1020.2
20260903011554 68 13 0.0 4.0 0.00 0.00 0.00 79 1020.2
20260903010034 68 320 0.0 2.0 0.00 0.00 0.00 81 1020.3
20260903004517 66 330 0.0 1.0 0.00 0.00 0.00 83 1020.1
20260903003045 67 281 2.0 6.0 0.00 0.00 0.00 82 1020.3
20260903001555 67 336 1.0 3.0 0.00 0.00 0.00 82 1020.3
20260903000015 68 13 0.0 3.0 0.00 0.00 0.00 82 1020.3
20260902234528 69 284 1.0 3.0 0.00 0.00 0.00 80 1020.1
20260902233014 70 306 0.0 2.0 0.00 0.00 0.00 79 1020.1
20260902231535 70 321 1.0 3.0 0.00 0.00 0.00 79 1020.0
20260902230009 70 349 1.0 4.0 0.00 0.00 0.00 80 1019.9
20260902224554 69 319 0.0 4.0 0.00 0.00 0.00 81 1020.0
20260902223005 70 314 0.0 3.0 0.00 0.00 0.00 79 1019.9
20260902221544 71 343 3.0 5.0 0.00 0.00 0.00 78 1019.9
20260902220022 71 308 1.0 5.0 0.00 0.00 0.00 79 1019.9
20260902214540 71 324 0.0 5.0 0.00 0.00 0.00 80 1019.9
20260902213041 70 281 0.0 4.0 0.00 0.00 0.00 81 1019.7
20260902211554 69 296 0.0 0.0 0.00 0.00 0.00 82 1019.5
20260902210044 69 288 0.0 2.0 0.00 0.00 0.00 82 1019.6
20260902204615 68 272 0.0 2.0 0.00 0.00 0.00 82 1019.5
20260902203049 68 289 0.0 2.0 0.00 0.00 0.00 82 1019.2
20260902201550 70 279 0.0 3.0 0.00 0.00 0.00 82 1019.2
20260902200037 70 275 0.0 0.0 0.00 0.00 0.00 81 1019.0
20260902194556 70 275 0.0 2.0 0.00 0.00 0.00 81 1019.0
20260902193001 71 275 0.0 2.0 0.00 0.00 0.00 80 1018.9
20260902191537 71 277 0.0 2.0 0.00 0.00 0.00 80 1018.7
20260902190029 71 276 0.0 2.0 0.00 0.00 0.00 80 1018.6
20260902184552 73 280 0.0 2.0 0.00 0.00 0.00 79 1018.3
20260902183004 74 323 0.0 2.0 0.00 0.00 0.00 78 1018.1
20260902181554 75 265 0.0 2.0 0.00 0.00 0.00 76 1018.0
20260902180105 77 111 0.0 0.0 0.00 0.00 0.00 73 1017.9
20260902174526 79 111 0.0 0.0 0.00 0.00 0.00 69 1017.8
20260902173054 81 111 0.0 2.0 0.00 0.00 0.00 66 1017.6
20260902171515 82 111 0.0 1.0 0.00 0.00 0.00 62 1017.7
20260902170025 83 119 0.0 2.0 0.00 0.00 0.00 58 1017.8
20260902164556 84 148 0.0 1.0 0.00 0.00 0.00 56 1017.7
20260902163102 84 118 0.0 3.0 0.00 0.00 0.00 54 1017.7
20260902161531 85 114 1.0 3.0 0.00 0.00 0.00 53 1017.7
20260902160033 85 126 1.0 4.0 0.00 0.00 0.00 54 1017.8
20260902154540 85 173 0.0 4.0 0.00 0.00 0.00 51 1017.8
20260902153003 86 235 0.0 4.0 0.00 0.00 0.00 48 1018.1
20260902151557 86 157 0.0 2.0 0.00 0.00 0.00 49 1018.2
20260902150032 85 163 0.0 3.0 0.00 0.00 0.00 52 1018.3
20260902144609 85 260 0.0 3.0 0.00 0.00 0.00 53 1018.5
20260902143033 83 251 0.0 3.0 0.00 0.00 0.00 55 1018.5
20260902141525 83 286 1.0 3.0 0.00 0.00 0.00 55 1018.6
20260902140021 85 278 2.0 4.0 0.00 0.00 0.00 51 1018.7
20260902134541 85 225 0.0 5.0 0.00 0.00 0.00 53 1018.9
20260902133014 84 246 0.0 4.0 0.00 0.00 0.00 59 1018.8
20260902131612 83 221 1.0 5.0 0.00 0.00 0.00 57 1019.0